Погода в Лукашево

Украина / Запорожская область     47°57′29″N   34°57′35″E
темп.,
°C
ветер,
м/с
пор.,
м/с
влажн.,
%
обл.,
%
осадки,
мм/ч
давл.,
гПа
погр.,
м
22 апреля, чт
чт2200:00+10юз377397 0.0 1018217
03:00+8юз36855 0.0 1019107
06:00+6юз34895 0.0 102066
09:00+12ююз44695 0.0 1021504
12:00+15ююз54535 0.4 10211463
15:00+17юз444335 0.7 10202100
18:00+16юз444715 0.0 10201162
21:00+11ю47695 0.0 1021117
23 апреля, пт
пт2300:00+10ююз48813 0.0 1021162
03:00+8ююз48880 0.0 1021167
06:00+7ю498998 0.0 1021191
09:00+12ююз69644 0.0 1020610
12:00+16ююз895189 0.0 10191415
15:00+17ююз8104696 0.1 10172156
18:00+16юз71152100 0.1 10151322
21:00+12зюз51071100 0.2 1016439
24 апреля, сб
сб2400:00+10зюз51089100 1.2 1015803
03:00+7сз588788 3.5 1016501
06:00+5зсз37925 0.0 1017254
09:00+9зсз57620 0.0 1018953
12:00+12з81041100 0.0 10182591
15:00+12з11134499 0.0 10172251
18:00+9зсз7124675 0.2 10192257
21:00+5зсз36530 0.2 1021132
25 апреля, вс
вс2500:00+4з38600 0.0 1022154
03:00+3з37700 0.0 1022138
06:00+2з35720 0.0 1022100
09:00+8з45500 0.0 1022766
12:00+11з44375 0.0 10221775
15:00+13з34358 0.0 10202078
18:00+13юз333758 0.0 10192027
21:00+8ю465184 0.0 101984
26 апреля, пн
пн2600:00+8ююз51058100 0.0 1020327
03:00+6з228097 0.0 101813
06:00+6юз347698 0.0 101794
09:00+6зсз5789100 0.3 1018568
12:00+7сз467498 0.6 10191103
15:00+12зсз783581 0.6 10172465
18:00+11зсз684298 0.0 10162293
21:00+7зсз3861100 0.0 1018210